| time (UTC) | temp F | wind direction | speed knots | gust knots | rain 1hr in | rain 24hr in | rain mn in | humidity % | barometer mb |
| 20260507015100 | 48 | 127 | 0.9 | 5.2 | 0.00 | 0.00 | 0.00 | 74 | 1014.8 |
| 20260507014615 | 48 | 139 | 0.9 | 5.2 | 0.00 | 0.00 | 0.00 | 74 | 1014.8 |
| 20260507014059 | 48 | 142 | 0.9 | 2.6 | 0.00 | 0.00 | 0.00 | 75 | 1014.8 |
| 20260507013558 | 48 | 90 | 0.9 | 2.6 | 0.00 | 0.00 | 0.00 | 74 | 1014.7 |
| 20260507013100 | 48 | 0 | 0.0 | 2.6 | 0.00 | 0.00 | 0.00 | 74 | 1014.8 |
| 20260507012607 | 48 | 115 | 0.0 | 3.5 | 0.00 | 0.00 | 0.00 | 74 | 1014.7 |
| 20260507012058 | 48 | 0 | 0.9 | 4.3 | 0.00 | 0.00 | 0.00 | 74 | 1014.6 |
| 20260507011558 | 48 | 117 | 1.7 | 4.3 | 0.00 | 0.00 | 0.00 | 74 | 1014.8 |
| 20260507011100 | 48 | 142 | 1.7 | 3.5 | 0.00 | 0.00 | 0.00 | 74 | 1014.8 |
| 20260507010602 | 48 | 114 | 0.9 | 4.3 | 0.00 | 0.00 | 0.00 | 73 | 1014.7 |
| 20260507010116 | 48 | 134 | 0.9 | 4.3 | 0.00 | 0.00 | 0.00 | 72 | 1014.7 |
| 20260507005557 | 48 | 139 | 0.0 | 3.5 | 0.00 | 0.00 | 0.00 | 72 | 1014.8 |
| 20260507005057 | 48 | 105 | 0.9 | 3.5 | 0.00 | 0.00 | 0.00 | 71 | 1014.7 |
| 20260507004557 | 48 | 142 | 0.9 | 4.3 | 0.00 | 0.00 | 0.00 | 71 | 1014.8 |
| 20260507004059 | 49 | 132 | 0.9 | 4.3 | 0.00 | 0.00 | 0.00 | 71 | 1014.8 |
| 20260507003559 | 49 | 115 | 0.9 | 3.5 | 0.00 | 0.00 | 0.00 | 71 | 1014.8 |
| 20260507003100 | 49 | 135 | 0.0 | 3.5 | 0.00 | 0.00 | 0.00 | 71 | 1014.9 |
| 20260507002558 | 49 | 123 | 0.9 | 4.3 | 0.00 | 0.00 | 0.00 | 70 | 1014.9 |
| 20260507002058 | 49 | 128 | 0.9 | 5.2 | 0.00 | 0.00 | 0.00 | 70 | 1014.9 |
| 20260507001606 | 49 | 129 | 1.7 | 5.2 | 0.00 | 0.00 | 0.00 | 70 | 1015.0 |
| 20260507001101 | 49 | 126 | 0.9 | 3.5 | 0.00 | 0.00 | 0.00 | 69 | 1014.9 |
| 20260507000558 | 49 | 0 | 0.9 | 3.5 | 0.00 | 0.00 | 0.00 | 69 | 1015.0 |
| 20260507000058 | 49 | 78 | 0.9 | 3.5 | 0.00 | 0.00 | 0.00 | 69 | 1014.9 |
| 20260506235558 | 49 | 90 | 0.0 | 2.6 | 0.00 | 0.00 | 0.00 | 68 | 1015.0 |
| 20260506235058 | 49 | 107 | 0.9 | 2.6 | 0.00 | 0.00 | 0.00 | 69 | 1015.1 |
| 20260506234600 | 49 | 82 | 1.7 | 2.6 | 0.00 | 0.00 | 0.00 | 69 | 1015.1 |
| 20260506234059 | 49 | 130 | 0.9 | 2.6 | 0.00 | 0.00 | 0.00 | 69 | 1015.0 |
| 20260506233559 | 49 | 0 | 0.9 | 2.6 | 0.00 | 0.00 | 0.00 | 69 | 1015.0 |
| 20260506233059 | 49 | 117 | 0.0 | 1.7 | 0.00 | 0.00 | 0.00 | 69 | 1015.0 |
| 20260506232558 | 49 | 0 | 0.9 | 4.3 | 0.00 | 0.00 | 0.00 | 69 | 1014.9 |
| 20260506232058 | 49 | 0 | 0.0 | 4.3 | 0.00 | 0.00 | 0.00 | 70 | 1014.9 |
| 20260506231600 | 50 | 132 | 0.9 | 3.5 | 0.00 | 0.00 | 0.00 | 66 | 1015.0 |
| 20260506231059 | 50 | 136 | 0.9 | 6.1 | 0.00 | 0.00 | 0.00 | 66 | 1015.0 |
| 20260506230600 | 50 | 0 | 1.7 | 6.1 | 0.00 | 0.00 | 0.00 | 65 | 1015.0 |
| 20260506230105 | 50 | 110 | 1.7 | 5.2 | 0.00 | 0.00 | 0.00 | 65 | 1014.9 |
| 20260506225558 | 50 | 0 | 0.9 | 5.2 | 0.00 | 0.00 | 0.00 | 65 | 1015.0 |
| 20260506225059 | 50 | 113 | 0.9 | 3.5 | 0.00 | 0.00 | 0.00 | 64 | 1014.9 |
| 20260506224601 | 50 | 77 | 0.9 | 3.5 | 0.00 | 0.00 | 0.00 | 63 | 1015.0 |
| 20260506224101 | 50 | 98 | 0.9 | 5.2 | 0.00 | 0.00 | 0.00 | 64 | 1014.9 |
| 20260506223559 | 50 | 105 | 1.7 | 5.2 | 0.00 | 0.00 | 0.00 | 63 | 1015.0 |
| 20260506223059 | 51 | 90 | 0.9 | 4.3 | 0.00 | 0.00 | 0.00 | 63 | 1014.9 |
| 20260506222558 | 51 | 88 | 0.9 | 5.2 | 0.00 | 0.00 | 0.00 | 62 | 1014.9 |
| 20260506222059 | 51 | 128 | 0.9 | 6.1 | 0.00 | 0.00 | 0.00 | 61 | 1014.8 |
| 20260506221601 | 51 | 103 | 1.7 | 6.1 | 0.00 | 0.00 | 0.00 | 60 | 1014.9 |
| 20260506221101 | 51 | 73 | 2.6 | 6.1 | 0.00 | 0.00 | 0.00 | 61 | 1014.7 |
| 20260506220559 | 51 | 98 | 1.7 | 6.1 | 0.00 | 0.00 | 0.00 | 61 | 1014.7 |
| 20260506220058 | 51 | 79 | 2.6 | 5.2 | 0.00 | 0.00 | 0.00 | 62 | 1014.7 |
| 20260506215559 | 52 | 127 | 1.7 | 5.2 | 0.00 | 0.00 | 0.00 | 61 | 1014.6 |
| 20260506215058 | 52 | 113 | 1.7 | 5.2 | 0.00 | 0.00 | 0.00 | 61 | 1014.7 |
| 20260506214609 | 52 | 86 | 0.9 | 5.2 | 0.00 | 0.00 | 0.00 | 60 | 1014.7 |
| 20260506214059 | 52 | 110 | 1.7 | 6.1 | 0.00 | 0.00 | 0.00 | 60 | 1014.7 |
| 20260506213559 | 52 | 57 | 2.6 | 6.1 | 0.00 | 0.00 | 0.00 | 59 | 1014.7 |
| 20260506213102 | 52 | 85 | 2.6 | 6.1 | 0.00 | 0.00 | 0.00 | 60 | 1014.6 |
| 20260506212558 | 52 | 80 | 2.6 | 5.2 | 0.00 | 0.00 | 0.00 | 59 | 1014.6 |
| 20260506212059 | 53 | 75 | 2.6 | 7.0 | 0.00 | 0.00 | 0.00 | 60 | 1014.7 |
| 20260506211558 | 53 | 57 | 2.6 | 7.0 | 0.00 | 0.00 | 0.00 | 59 | 1014.7 |
| 20260506211059 | 53 | 65 | 2.6 | 6.1 | 0.00 | 0.00 | 0.00 | 59 | 1014.5 |
| 20260506210559 | 53 | 73 | 1.7 | 5.2 | 0.00 | 0.00 | 0.00 | 59 | 1014.4 |
| 20260506210100 | 53 | 83 | 2.6 | 5.2 | 0.00 | 0.00 | 0.00 | 59 | 1014.4 |
| 20260506205603 | 53 | 82 | 2.6 | 6.1 | 0.00 | 0.00 | 0.00 | 59 | 1014.4 |
| 20260506205059 | 53 | 90 | 2.6 | 6.1 | 0.00 | 0.00 | 0.00 | 59 | 1014.3 |
| 20260506204601 | 53 | 106 | 1.7 | 5.2 | 0.00 | 0.00 | 0.00 | 60 | 1014.3 |
| 20260506204059 | 52 | 93 | 1.7 | 5.2 | 0.00 | 0.00 | 0.00 | 61 | 1014.3 |
| 20260506203558 | 52 | 57 | 1.7 | 3.5 | 0.00 | 0.00 | 0.00 | 64 | 1014.3 |
| 20260506203108 | 53 | 89 | 0.9 | 2.6 | 0.00 | 0.00 | 0.00 | 65 | 1014.3 |
| 20260506202559 | 53 | 78 | 0.9 | 2.6 | 0.00 | 0.00 | 0.00 | 65 | 1014.2 |
| 20260506202059 | 53 | 78 | 0.9 | 2.6 | 0.00 | 0.00 | 0.00 | 64 | 1014.3 |
| 20260506201620 | 53 | 62 | 0.9 | 2.6 | 0.00 | 0.00 | 0.00 | 64 | 1014.2 |
| 20260506201059 | 53 | 0 | 0.9 | 2.6 | 0.00 | 0.00 | 0.00 | 64 | 1014.2 |
| 20260506200558 | 53 | 62 | 0.9 | 2.6 | 0.00 | 0.00 | 0.00 | 65 | 1014.2 |
| 20260506200058 | 53 | 62 | 0.9 | 1.7 | 0.00 | 0.00 | 0.00 | 64 | 1014.2 |
| 20260506195559 | 54 | 62 | 0.9 | 1.7 | 0.00 | 0.00 | 0.00 | 65 | 1014.0 |
| 20260506195058 | 54 | 62 | 0.9 | 1.7 | 0.00 | 0.00 | 0.00 | 64 | 1014.0 |
| 20260506194603 | 54 | 62 | 0.9 | 1.7 | 0.00 | 0.00 | 0.00 | 66 | 1014.0 |
| 20260506194101 | 55 | 51 | 0.9 | 2.6 | 0.00 | 0.00 | 0.00 | 65 | 1014.0 |
| 20260506193559 | 55 | 46 | 0.9 | 2.6 | 0.00 | 0.00 | 0.00 | 63 | 1014.0 |
| 20260506193107 | 55 | 49 | 0.9 | 2.6 | 0.00 | 0.00 | 0.00 | 60 | 1014.0 |
| 20260506192558 | 56 | 44 | 0.0 | 1.7 | 0.00 | 0.00 | 0.00 | 60 | 1013.9 |
| 20260506192059 | 56 | 0 | 0.9 | 1.7 | 0.00 | 0.00 | 0.00 | 60 | 1013.9 |
| 20260506191600 | 57 | 94 | 0.0 | 0.9 | 0.00 | 0.00 | 0.00 | 59 | 1014.0 |
| 20260506191059 | 57 | 0 | 0.0 | 0.9 | 0.00 | 0.00 | 0.00 | 59 | 1013.9 |
| 20260506190559 | 57 | 94 | 0.0 | 0.9 | 0.00 | 0.00 | 0.00 | 59 | 1014.0 |
| 20260506190058 | 58 | 0 | 0.0 | 1.7 | 0.00 | 0.00 | 0.00 | 57 | 1013.9 |
| 20260506185559 | 58 | 94 | 0.0 | 1.7 | 0.00 | 0.00 | 0.00 | 57 | 1014.0 |
| 20260506185059 | 58 | 0 | 0.0 | 1.7 | 0.00 | 0.00 | 0.00 | 54 | 1013.9 |
| 20260506184602 | 58 | 94 | 0.0 | 1.7 | 0.00 | 0.00 | 0.00 | 55 | 1013.9 |
| 20260506184058 | 58 | 94 | 0.0 | 1.7 | 0.00 | 0.00 | 0.00 | 55 | 1013.9 |
| 20260506183559 | 58 | 90 | 0.0 | 1.7 | 0.00 | 0.00 | 0.00 | 52 | 1013.9 |
| 20260506183100 | 58 | 106 | 0.0 | 1.7 | 0.00 | 0.00 | 0.00 | 51 | 1013.9 |
| 20260506182558 | 59 | 0 | 0.9 | 2.6 | 0.00 | 0.00 | 0.00 | 52 | 1013.9 |
| 20260506182058 | 59 | 0 | 0.9 | 3.5 | 0.00 | 0.00 | 0.00 | 50 | 1013.9 |
| 20260506181559 | 59 | 97 | 0.9 | 3.5 | 0.00 | 0.00 | 0.00 | 50 | 1013.9 |
| 20260506181059 | 59 | 96 | 0.9 | 3.5 | 0.00 | 0.00 | 0.00 | 52 | 1013.9 |
| 20260506180559 | 59 | 63 | 0.0 | 2.6 | 0.00 | 0.00 | 0.00 | 50 | 1013.9 |
| 20260506180100 | 59 | 80 | 0.9 | 2.6 | 0.00 | 0.00 | 0.00 | 49 | 1013.9 |
| 20260506175558 | 59 | 105 | 0.9 | 3.5 | 0.00 | 0.00 | 0.00 | 50 | 1013.8 |
| 20260506175058 | 59 | 84 | 1.7 | 3.5 | 0.00 | 0.00 | 0.00 | 47 | 1013.7 |
| 20260506174558 | 59 | 96 | 0.9 | 5.2 | 0.00 | 0.00 | 0.00 | 51 | 1013.7 |
| 20260506174058 | 59 | 79 | 0.9 | 5.2 | 0.00 | 0.00 | 0.00 | 50 | 1013.6 |
| 20260506173557 | 60 | 78 | 1.7 | 5.2 | 0.00 | 0.00 | 0.00 | 48 | 1013.6 |
| 20260506173123 | 60 | 83 | 0.9 | 6.1 | 0.00 | 0.00 | 0.00 | 51 | 1013.6 |
| 20260506172558 | 60 | 134 | 1.7 | 6.1 | 0.00 | 0.00 | 0.00 | 48 | 1013.6 |
| 20260506172058 | 60 | 96 | 1.7 | 6.1 | 0.00 | 0.00 | 0.00 | 47 | 1013.5 |
| 20260506171559 | 60 | 144 | 1.7 | 6.1 | 0.00 | 0.00 | 0.00 | 49 | 1013.4 |
| 20260506171058 | 60 | 81 | 2.6 | 6.1 | 0.00 | 0.00 | 0.00 | 51 | 1013.5 |
| 20260506170602 | 60 | 77 | 0.9 | 3.5 | 0.00 | 0.00 | 0.00 | 49 | 1013.4 |
| 20260506165558 | 60 | 90 | 1.7 | 6.1 | 0.00 | 0.00 | 0.00 | 49 | 1013.3 |
| 20260506165059 | 60 | 74 | 1.7 | 6.1 | 0.00 | 0.00 | 0.00 | 51 | 1013.3 |
| 20260506164558 | 60 | 0 | 1.7 | 5.2 | 0.00 | 0.00 | 0.00 | 44 | 1013.4 |
| 20260506164100 | 60 | 97 | 0.0 | 4.3 | 0.00 | 0.00 | 0.00 | 48 | 1013.3 |
| 20260506163558 | 60 | 76 | 1.7 | 6.1 | 0.00 | 0.00 | 0.00 | 47 | 1013.4 |
| 20260506163109 | 61 | 157 | 1.7 | 6.1 | 0.00 | 0.00 | 0.00 | 46 | 1013.4 |
| 20260506162558 | 61 | 107 | 1.7 | 6.1 | 0.00 | 0.00 | 0.00 | 49 | 1013.4 |
| 20260506162058 | 62 | 86 | 1.7 | 7.0 | 0.00 | 0.00 | 0.00 | 43 | 1013.4 |
| 20260506161605 | 63 | 72 | 1.7 | 7.8 | 0.00 | 0.00 | 0.00 | 46 | 1013.5 |
| 20260506161057 | 63 | 69 | 2.6 | 7.8 | 0.00 | 0.00 | 0.00 | 44 | 1013.5 |
| 20260506160558 | 62 | 109 | 1.7 | 7.8 | 0.00 | 0.00 | 0.00 | 43 | 1013.5 |
| 20260506155600 | 62 | 300 | 1.7 | 7.0 | 0.00 | 0.00 | 0.00 | 46 | 1013.5 |
| 20260506155058 | 62 | 115 | 0.9 | 6.1 | 0.00 | 0.00 | 0.00 | 49 | 1013.6 |
| 20260506154607 | 62 | 9 | 1.7 | 7.0 | 0.00 | 0.00 | 0.00 | 45 | 1013.7 |
| 20260506154059 | 62 | 325 | 0.0 | 8.7 | 0.00 | 0.00 | 0.00 | 45 | 1013.6 |
| 20260506153558 | 63 | 12 | 2.6 | 10.4 | 0.00 | 0.00 | 0.00 | 44 | 1013.7 |
| 20260506153058 | 62 | 91 | 3.5 | 10.4 | 0.00 | 0.00 | 0.00 | 47 | 1013.7 |
| 20260506152558 | 63 | 115 | 1.7 | 8.7 | 0.00 | 0.00 | 0.00 | 45 | 1013.6 |
| 20260506152058 | 62 | 348 | 2.6 | 8.7 | 0.00 | 0.00 | 0.00 | 43 | 1013.6 |
| 20260506151602 | 62 | 24 | 3.5 | 8.7 | 0.00 | 0.00 | 0.00 | 44 | 1013.6 |
| 20260506151058 | 62 | 313 | 1.7 | 6.1 | 0.00 | 0.00 | 0.00 | 44 | 1013.7 |
| 20260506150601 | 61 | 0 | 1.7 | 10.4 | 0.00 | 0.00 | 0.00 | 44 | 1013.6 |
| 20260506145600 | 61 | 83 | 4.3 | 8.7 | 0.00 | 0.00 | 0.00 | 45 | 1013.6 |
| 20260506145057 | 60 | 28 | 0.9 | 7.0 | 0.00 | 0.00 | 0.00 | 48 | 1013.7 |
| 20260506144601 | 60 | 69 | 3.5 | 7.8 | 0.00 | 0.00 | 0.00 | 45 | 1013.7 |
| 20260506144058 | 62 | 74 | 2.6 | 7.8 | 0.00 | 0.00 | 0.00 | 44 | 1013.8 |
| 20260506143559 | 62 | 97 | 1.7 | 6.1 | 0.00 | 0.00 | 0.00 | 46 | 1013.7 |
| 20260506143108 | 62 | 96 | 1.7 | 7.0 | 0.00 | 0.00 | 0.00 | 50 | 1013.7 |
| 20260506142559 | 61 | 151 | 1.7 | 8.7 | 0.00 | 0.00 | 0.00 | 55 | 1013.9 |
| 20260506142058 | 61 | 98 | 2.6 | 9.6 | 0.00 | 0.00 | 0.00 | 45 | 1013.9 |
| 20260506141559 | 62 | 61 | 6.1 | 9.6 | 0.00 | 0.00 | 0.00 | 44 | 1013.9 |
| 20260506141100 | 62 | 5 | 1.7 | 7.8 | 0.00 | 0.00 | 0.00 | 47 | 1013.9 |
| 20260506140601 | 61 | 89 | 1.7 | 6.1 | 0.00 | 0.00 | 0.00 | 49 | 1014.0 |
| 20260506135558 | 59 | 121 | 0.9 | 8.7 | 0.00 | 0.00 | 0.00 | 49 | 1014.1 |
| 20260506135058 | 59 | 67 | 2.6 | 6.1 | 0.00 | 0.00 | 0.00 | 48 | 1014.2 |
| 20260506134559 | 60 | 83 | 2.6 | 6.1 | 0.00 | 0.00 | 0.00 | 49 | 1014.2 |
| 20260506134059 | 60 | 67 | 1.7 | 9.6 | 0.00 | 0.00 | 0.00 | 49 | 1014.2 |
| 20260506133601 | 60 | 84 | 2.6 | 9.6 | 0.00 | 0.00 | 0.00 | 47 | 1014.2 |
| 20260506133104 | 61 | 132 | 3.5 | 9.6 | 0.00 | 0.00 | 0.00 | 48 | 1014.2 |
| 20260506132557 | 61 | 288 | 2.6 | 7.8 | 0.00 | 0.00 | 0.00 | 47 | 1014.1 |
| 20260506132057 | 61 | 5 | 1.7 | 7.8 | 0.00 | 0.00 | 0.00 | 52 | 1014.2 |
| 20260506131602 | 60 | 84 | 1.7 | 7.8 | 0.00 | 0.00 | 0.00 | 49 | 1014.3 |
| 20260506131058 | 60 | 347 | 2.6 | 8.7 | 0.00 | 0.00 | 0.00 | 49 | 1014.3 |
| 20260506130559 | 60 | 296 | 3.5 | 10.4 | 0.00 | 0.00 | 0.00 | 50 | 1014.2 |
| 20260506130105 | 60 | 32 | 1.7 | 10.4 | 0.00 | 0.00 | 0.00 | 47 | 1014.3 |
| 20260506125558 | 60 | 146 | 1.7 | 7.8 | 0.00 | 0.00 | 0.00 | 52 | 1014.3 |
| 20260506125058 | 60 | 82 | 3.5 | 8.7 | 0.00 | 0.00 | 0.00 | 46 | 1014.4 |
| 20260506124601 | 60 | 113 | 4.3 | 9.6 | 0.00 | 0.00 | 0.00 | 52 | 1014.3 |
| 20260506124101 | 60 | 74 | 4.3 | 9.6 | 0.00 | 0.00 | 0.00 | 50 | 1014.3 |
| 20260506123558 | 60 | 96 | 3.5 | 10.4 | 0.00 | 0.00 | 0.00 | 52 | 1014.2 |
| 20260506123058 | 60 | 83 | 6.1 | 10.4 | 0.00 | 0.00 | 0.00 | 48 | 1014.2 |
| 20260506122558 | 60 | 89 | 3.5 | 10.4 | 0.00 | 0.00 | 0.00 | 48 | 1014.1 |
| 20260506122058 | 60 | 46 | 4.3 | 9.6 | 0.00 | 0.00 | 0.00 | 51 | 1014.2 |
| 20260506121606 | 60 | 52 | 3.5 | 8.7 | 0.00 | 0.00 | 0.00 | 48 | 1014.1 |
| 20260506121058 | 60 | 13 | 3.5 | 9.6 | 0.00 | 0.00 | 0.00 | 48 | 1014.2 |
| 20260506120558 | 59 | 0 | 4.3 | 9.6 | 0.00 | 0.00 | 0.00 | 58 | 1014.2 |
| 20260506120111 | 59 | 55 | 5.2 | 10.4 | 0.00 | 0.00 | 0.00 | 51 | 1014.2 |
| 20260506115600 | 58 | 88 | 2.6 | 10.4 | 0.00 | 0.00 | 0.00 | 48 | 1014.2 |
| 20260506115059 | 58 | 66 | 6.1 | 10.4 | 0.00 | 0.00 | 0.00 | 49 | 1014.4 |
| 20260506114623 | 59 | 47 | 5.2 | 9.6 | 0.00 | 0.00 | 0.00 | 51 | 1014.3 |
| 20260506114058 | 59 | 49 | 2.6 | 10.4 | 0.00 | 0.00 | 0.00 | 48 | 1014.4 |
| 20260506113558 | 59 | 13 | 5.2 | 10.4 | 0.00 | 0.00 | 0.00 | 52 | 1014.4 |
| 20260506113057 | 60 | 65 | 5.2 | 10.4 | 0.00 | 0.00 | 0.00 | 48 | 1014.4 |
| 20260506112601 | 61 | 360 | 1.7 | 9.6 | 0.00 | 0.00 | 0.00 | 51 | 1014.6 |
| 20260506112059 | 60 | 279 | 3.5 | 9.6 | 0.00 | 0.00 | 0.00 | 54 | 1014.5 |
| 20260506111600 | 60 | 44 | 3.5 | 8.7 | 0.00 | 0.00 | 0.00 | 51 | 1014.5 |
| 20260506111058 | 60 | 349 | 1.7 | 7.8 | 0.00 | 0.00 | 0.00 | 56 | 1014.6 |
| 20260506110601 | 59 | 101 | 2.6 | 8.7 | 0.00 | 0.00 | 0.00 | 58 | 1014.5 |
| 20260506110058 | 59 | 100 | 5.2 | 8.7 | 0.00 | 0.00 | 0.00 | 57 | 1014.6 |
| 20260506105603 | 59 | 13 | 1.7 | 8.7 | 0.00 | 0.00 | 0.00 | 56 | 1014.5 |
| 20260506105059 | 58 | 322 | 3.5 | 8.7 | 0.00 | 0.00 | 0.00 | 57 | 1014.6 |
| 20260506104557 | 58 | 349 | 2.6 | 7.8 | 0.00 | 0.00 | 0.00 | 60 | 1014.6 |
| 20260506104058 | 57 | 65 | 2.6 | 7.8 | 0.00 | 0.00 | 0.00 | 61 | 1014.5 |
| 20260506103600 | 57 | 38 | 1.7 | 7.0 | 0.00 | 0.00 | 0.00 | 58 | 1014.6 |
| 20260506103057 | 57 | 285 | 2.6 | 8.7 | 0.00 | 0.00 | 0.00 | 58 | 1014.5 |
| 20260506102559 | 56 | 75 | 3.5 | 8.7 | 0.00 | 0.00 | 0.00 | 59 | 1014.6 |
| 20260506102059 | 56 | 352 | 3.5 | 7.8 | 0.00 | 0.00 | 0.00 | 57 | 1014.6 |
| 20260506101558 | 57 | 69 | 2.6 | 9.6 | 0.00 | 0.00 | 0.00 | 57 | 1014.6 |
| 20260506101057 | 56 | 352 | 2.6 | 9.6 | 0.00 | 0.00 | 0.00 | 63 | 1014.5 |
| 20260506100557 | 56 | 331 | 3.5 | 9.6 | 0.00 | 0.00 | 0.00 | 62 | 1014.6 |
| 20260506100058 | 56 | 331 | 2.6 | 7.8 | 0.00 | 0.00 | 0.00 | 64 | 1014.6 |
| 20260506095557 | 56 | 36 | 3.5 | 7.8 | 0.00 | 0.00 | 0.00 | 59 | 1014.6 |
| 20260506095057 | 56 | 119 | 2.6 | 7.8 | 0.00 | 0.00 | 0.00 | 60 | 1014.7 |
| 20260506094556 | 56 | 49 | 0.9 | 10.4 | 0.00 | 0.00 | 0.00 | 59 | 1014.7 |
| 20260506094057 | 55 | 58 | 4.3 | 10.4 | 0.00 | 0.00 | 0.00 | 57 | 1014.7 |
| 20260506093557 | 56 | 45 | 1.7 | 8.7 | 0.00 | 0.00 | 0.00 | 57 | 1014.6 |
| 20260506093111 | 56 | 22 | 3.5 | 8.7 | 0.00 | 0.00 | 0.00 | 56 | 1014.5 |
| 20260506092557 | 56 | 27 | 2.6 | 8.7 | 0.00 | 0.00 | 0.00 | 61 | 1014.5 |
| 20260506092057 | 56 | 94 | 0.9 | 7.8 | 0.00 | 0.00 | 0.00 | 61 | 1014.4 |
| 20260506091558 | 55 | 46 | 3.5 | 9.6 | 0.00 | 0.00 | 0.00 | 59 | 1014.5 |
| 20260506091057 | 55 | 78 | 4.3 | 9.6 | 0.00 | 0.00 | 0.00 | 61 | 1014.5 |
| 20260506090557 | 55 | 79 | 5.2 | 9.6 | 0.00 | 0.00 | 0.00 | 60 | 1014.5 |
| 20260506090113 | 54 | 94 | 2.6 | 8.7 | 0.00 | 0.00 | 0.00 | 61 | 1014.5 |
| 20260506085558 | 54 | 69 | 2.6 | 8.7 | 0.00 | 0.00 | 0.00 | 60 | 1014.4 |
| 20260506085059 | 54 | 78 | 1.7 | 9.6 | 0.00 | 0.00 | 0.00 | 66 | 1014.5 |
| 20260506084558 | 53 | 55 | 4.3 | 10.4 | 0.00 | 0.00 | 0.00 | 62 | 1014.4 |
| 20260506084058 | 53 | 102 | 5.2 | 10.4 | 0.00 | 0.00 | 0.00 | 64 | 1014.5 |
| 20260506083600 | 52 | 22 | 3.5 | 9.6 | 0.00 | 0.00 | 0.00 | 63 | 1014.5 |
| 20260506083059 | 52 | 62 | 5.2 | 10.4 | 0.00 | 0.00 | 0.00 | 62 | 1014.5 |
| 20260506082601 | 52 | 69 | 5.2 | 11.3 | 0.00 | 0.00 | 0.00 | 63 | 1014.5 |
| 20260506082058 | 52 | 52 | 5.2 | 11.3 | 0.00 | 0.00 | 0.00 | 65 | 1014.5 |
| 20260506081558 | 52 | 55 | 4.3 | 13.0 | 0.00 | 0.00 | 0.00 | 65 | 1014.5 |
| 20260506081058 | 51 | 79 | 7.0 | 13.0 | 0.00 | 0.00 | 0.00 | 64 | 1014.6 |
| 20260506080558 | 51 | 50 | 6.1 | 11.3 | 0.00 | 0.00 | 0.00 | 63 | 1014.5 |
| 20260506080110 | 51 | 65 | 5.2 | 12.2 | 0.00 | 0.00 | 0.00 | 64 | 1014.5 |
| 20260506073110 | 50 | 71 | 4.3 | 13.0 | 0.00 | 0.00 | 0.00 | 70 | 1014.4 |
| 20260506072559 | 50 | 91 | 4.3 | 13.0 | 0.00 | 0.00 | 0.00 | 71 | 1014.4 |
| 20260506072058 | 50 | 42 | 5.2 | 13.0 | 0.00 | 0.00 | 0.00 | 71 | 1014.4 |
| 20260506071600 | 50 | 0 | 3.5 | 8.7 | 0.00 | 0.00 | 0.00 | 73 | 1014.3 |
| 20260506071058 | 50 | 17 | 1.7 | 7.0 | 0.00 | 0.00 | 0.00 | 73 | 1014.3 |
| 20260506070558 | 50 | 59 | 2.6 | 7.0 | 0.00 | 0.00 | 0.00 | 73 | 1014.2 |
| 20260506062100 | 50 | 350 | 1.7 | 3.5 | 0.00 | 0.00 | 0.00 | 77 | 1014.0 |
| 20260506061604 | 49 | 336 | 1.7 | 3.5 | 0.00 | 0.00 | 0.00 | 77 | 1014.0 |
| 20260506061059 | 49 | 38 | 0.0 | 3.5 | 0.00 | 0.00 | 0.00 | 76 | 1014.0 |
| 20260506060558 | 49 | 82 | 0.0 | 3.5 | 0.00 | 0.00 | 0.00 | 76 | 1013.9 |
| 20260506051058 | 49 | 0 | 1.7 | 6.1 | 0.00 | 0.00 | 0.00 | 74 | 1013.7 |
| 20260506050558 | 49 | 101 | 2.6 | 6.1 | 0.00 | 0.00 | 0.00 | 74 | 1013.6 |
| 20260506050103 | 49 | 119 | 1.7 | 8.7 | 0.00 | 0.00 | 0.00 | 74 | 1013.6 |
| 20260506045059 | 49 | 86 | 5.2 | 11.3 | 0.00 | 0.00 | 0.00 | 73 | 1013.5 |
| 20260506044617 | 50 | 87 | 4.3 | 13.0 | 0.00 | 0.00 | 0.00 | 73 | 1013.5 |
| 20260506044058 | 50 | 52 | 7.0 | 13.0 | 0.00 | 0.00 | 0.00 | 72 | 1013.4 |
| 20260506043602 | 50 | 82 | 6.1 | 13.0 | 0.00 | 0.00 | 0.00 | 73 | 1013.4 |
| 20260506043103 | 50 | 51 | 4.3 | 11.3 | 0.00 | 0.00 | 0.00 | 73 | 1013.4 |
| 20260506042558 | 50 | 74 | 5.2 | 9.6 | 0.00 | 0.00 | 0.00 | 74 | 1013.3 |
| 20260506042058 | 50 | 90 | 2.6 | 9.6 | 0.00 | 0.00 | 0.00 | 75 | 1013.3 |
| 20260506041610 | 50 | 61 | 5.2 | 9.6 | 0.00 | 0.00 | 0.00 | 76 | 1013.3 |
| 20260506041059 | 50 | 49 | 1.7 | 5.2 | 0.00 | 0.00 | 0.00 | 79 | 1013.3 |
| 20260506040557 | 50 | 0 | 0.0 | 4.3 | 0.00 | 0.00 | 0.00 | 80 | 1013.4 |
| 20260506035558 | 50 | 152 | 0.0 | 2.6 | 0.00 | 0.00 | 0.00 | 80 | 1013.3 |
| 20260506035058 | 50 | 0 | 0.0 | 2.6 | 0.00 | 0.00 | 0.00 | 80 | 1013.3 |
| 20260506034611 | 51 | 0 | 0.0 | 2.6 | 0.00 | 0.00 | 0.00 | 80 | 1013.3 |
| 20260506034057 | 51 | 352 | 0.9 | 3.5 | 0.00 | 0.00 | 0.00 | 80 | 1013.3 |
| 20260506033558 | 51 | 347 | 1.7 | 3.5 | 0.00 | 0.00 | 0.00 | 79 | 1013.3 |
| 20260506033058 | 51 | 0 | 0.9 | 4.3 | 0.00 | 0.00 | 0.00 | 79 | 1013.3 |
| 20260506032558 | 51 | 349 | 1.7 | 4.3 | 0.00 | 0.00 | 0.00 | 78 | 1013.4 |
| 20260506032058 | 51 | 326 | 0.9 | 7.0 | 0.00 | 0.00 | 0.00 | 78 | 1013.3 |
| 20260506031600 | 51 | 0 | 1.7 | 7.0 | 0.00 | 0.00 | 0.00 | 78 | 1013.4 |
| 20260506031058 | 51 | 77 | 1.7 | 4.3 | 0.00 | 0.00 | 0.00 | 78 | 1013.4 |
| 20260506030558 | 51 | 57 | 0.9 | 3.5 | 0.00 | 0.00 | 0.00 | 78 | 1013.4 |
| 20260506030056 | 51 | 50 | 0.0 | 2.6 | 0.00 | 0.00 | 0.00 | 78 | 1013.4 |
| 20260506025557 | 51 | 28 | 0.0 | 2.6 | 0.00 | 0.00 | 0.00 | 78 | 1013.4 |
| 20260506025058 | 51 | 16 | 0.9 | 2.6 | 0.00 | 0.00 | 0.00 | 77 | 1013.4 |
| 20260506024613 | 51 | 48 | 0.0 | 3.5 | 0.00 | 0.00 | 0.00 | 77 | 1013.4 |
| 20260506024058 | 51 | 0 | 0.0 | 4.3 | 0.00 | 0.00 | 0.00 | 77 | 1013.3 |
| 20260506023559 | 51 | 49 | 0.0 | 7.8 | 0.00 | 0.00 | 0.00 | 77 | 1013.5 |
| 20260506023058 | 51 | 39 | 1.7 | 7.8 | 0.00 | 0.00 | 0.00 | 76 | 1013.5 |
| 20260506022558 | 51 | 53 | 1.7 | 7.8 | 0.00 | 0.00 | 0.00 | 76 | 1013.4 |
| 20260506022058 | 51 | 37 | 1.7 | 4.3 | 0.00 | 0.00 | 0.00 | 77 | 1013.3 |
| 20260506021559 | 51 | 63 | 0.9 | 5.2 | 0.00 | 0.00 | 0.00 | 77 | 1013.4 |
| 20260506021102 | 51 | 40 | 0.9 | 5.2 | 0.00 | 0.00 | 0.00 | 77 | 1013.4 |
| 20260506020558 | 51 | 50 | 1.7 | 5.2 | 0.00 | 0.00 | 0.00 | 77 | 1013.3 |
| 20260506020123 | 51 | 21 | 1.7 | 5.2 | 0.00 | 0.00 | 0.00 | 77 | 1013.4 |
| 20260506015559 | 51 | 46 | 0.9 | 6.1 | 0.00 | 0.00 | 0.00 | 77 | 1013.4 |